Date,TemperatureHighF,TemperatureAvgF,TemperatureLowF,DewpointHighF,DewpointAvgF,DewpointLowF,HumidityHigh,HumidityAvg,HumidityLow,PressureMaxIn,PressureMinIn,WindSpeedMaxMPH,WindSpeedAvgMPH,GustSpeedMaxMPH,PrecipitationSumIn
2013-3-1,34,31,28,31,27,23,89,85,77,29.98,29.81,14,4,14,0.05
2013-3-2,30,27,25,24,22,20,90,83,76,29.98,29.92,14,3,14,0.02
2013-3-3,28,26,24,23,21,18,87,81,70,30.04,29.93,17,4,17,0.01
2013-3-4,37,27,22,23,20,16,90,73,51,30.16,30.03,18,3,21,0.01
2013-3-5,51,33,18,30,20,14,93,66,25,30.14,29.72,24,2,25,0.01
2013-3-6,42,35,31,34,31,29,96,84,65,30.12,29.72,15,2,16,0.38
2013-3-7,40,36,34,31,30,29,89,80,67,30.28,30.11,16,3,16,0.03
2013-3-8,36,32,25,29,27,23,93,81,73,30.43,30.27,18,4,18,0.01
2013-3-9,58,35,22,35,26,20,95,76,24,30.46,30.26,7,1,7,0.00
2013-3-10,67,45,27,37,32,25,94,67,29,30.28,30.07,11,1,11,0.00
2013-3-11,58,49,40,49,39,32,86,71,39,30.09,29.78,21,1,24,0.04
2013-3-12,53,41,37,49,37,28,97,85,70,30.02,29.75,15,3,16,0.37
2013-3-13,38,33,28,31,27,20,92,79,57,30.14,29.95,20,4,20,0.04
2013-3-14,39,31,25,25,20,16,82,66,46,30.24,30.14,24,5,24,0.00
2013-3-15,52,38,23,37,28,21,91,69,51,30.17,29.83,20,2,20,0.00
2013-3-16,48,43,38,46,40,35,97,91,70,29.93,29.61,20,2,20,0.03
2013-3-17,40,36,31,35,28,24,92,74,58,30.21,29.93,12,3,13,0.00
2013-3-18,36,34,31,33,29,25,94,85,68,30.20,29.82,15,2,15,0.16
2013-3-19,47,39,34,36,27,15,98,67,29,29.99,29.77,26,5,29,0.47
2013-3-20,42,34,28,27,20,16,83,56,40,30.00,29.81,28,4,28,0.00
2013-3-21,29,25,20,22,15,10,87,68,51,29.97,29.85,20,4,20,0.01
2013-3-22,39,30,24,23,20,18,85,67,49,30.06,29.94,17,4,17,0.01
2013-3-23,48,32,18,27,22,16,94,71,38,30.08,30.00,17,2,18,0.00
2013-3-24,39,31,24,30,25,22,93,80,53,30.03,29.59,18,1,18,0.00
2013-3-25,38,34,31,34,31,28,96,90,80,29.75,29.51,10,1,12,0.49
2013-3-26,41,36,32,32,31,29,94,82,64,30.10,29.75,17,3,17,0.15
2013-3-27,41,36,32,32,29,26,93,75,56,30.19,30.08,19,4,19,0.12
2013-3-28,41,37,33,33,31,28,90,79,66,30.29,30.15,13,2,14,0.03
2013-3-29,52,40,33,36,31,25,94,72,37,30.30,30.17,15,1,16,0.00
2013-3-30,55,40,26,33,28,19,96,68,26,30.28,30.09,11,1,11,0.00
2013-3-31,48,40,32,46,37,28,97,91,83,30.09,29.75,9,0,10,0.20